Location: Mahannah Oil Field
(37.4664°N, 96.6003°W)
Time: 14:50:14
(UTC+00:00)

Vanguard 2 Rocket - Pass Details

Date: 24 June 2021
Orbit: 554 x 3325 km, 32.9° (Epoch: 24 July)

Event Time Altitude Azimuth Distance (km) Brightness Sun altitude
Rises 04:45:39 0° 278° (W) 7,253 12.0 -24.5°
Reaches altitude 10° 04:50:53 10° 276° (W) 6,072 11.4 -24.9°
Maximum altitude 05:08:26 60° 203° (SSW) 2,579 8.8 -26.3°
Enters shadow 05:13:21 40° 145° (SE) 2,710 8.7 -26.6°
